This demonstration page uses our WeatherBlox Daily Observations layout. Learn more.

Left ArrowRight Arrow

Hourly Observations for July 3, 2018

Temp ( °F °C ) Dew Point ( °F °C ) Humidity (%) Winds ( mph kmh ) Pressure ( in mb ) Visibility ( mi km ) Precip ( " mm )
12:53 am 00:53 Mostly Clear 47 8.3 41 5 80 80 Calm 29.91 1013 10 16 0.00 0.00
1:53 am 01:53 Clear 45 7.2 41 5 86 86 S 8 13 29.91 1013 10 16 0.00 0.00
2:53 am 02:53 Clear 46 7.8 41 5 83 83 SW 6 9 29.91 1013 10 16 0.00 0.00
3:53 am 03:53 Clear 45 7.2 40 4.4 83 83 SW 13 20 29.92 1013 10 16 0.00 0.00
4:53 am 04:53 Clear 43 6.1 39 3.9 86 86 WSW 6 9 29.94 1014 10 16 0.00 0.00
5:53 am 05:53 Sunny 43 6.1 39 3.9 86 86 SW 12 19 29.97 1015 10 16 0.00 0.00
6:53 am 06:53 Sunny 48 8.9 40 4.4 74 74 SW 10 17 29.98 1015 10 16 0.00 0.00
7:53 am 07:53 Sunny 53 11.7 40 4.4 61 61 SW 14 22 29.98 1015 10 16 0.00 0.00
8:53 am 08:53 Sunny 57 13.9 41 5 55 55 SW 14 22 29.97 1015 10 16 0.00 0.00
9:53 am 09:53 Sunny 61 16.1 42 5.6 50 50 SW 8 13 29.97 1015 10 16 0.00 0.00
10:53 am 10:53 Mostly Cloudy 64 17.8 41 5 43 43 WSW 13 20 29.96 1015 10 16 0.00 0.00
11:53 am 11:53 Mostly Sunny 64 17.8 37 2.8 37 37 SW 13 20 29.96 1015 10 16 0.00 0.00
12:53 pm 12:53 Mostly Sunny 65 18.3 35 1.7 33 33 WSW 9 15 29.97 1015 10 16 0.00 0.00
1:53 pm 13:53 Cloudy 64 17.8 38 3.3 38 38 SSW 13 20 29.97 1015 10 16 0.00 0.00
2:53 pm 14:53 Cloudy 63 17.2 37 2.8 38 38 SSW 14 22 29.98 1015 10 16 0.00 0.00
3:53 pm 15:53 Cloudy 56 13.3 42 5.6 60 60 S 23 37 29.98 1015 10 16 0.00 0.00
4:53 pm 16:53 Cloudy 56 13.3 44 6.7 65 65 S 15 24 30.01 1016 10 16 0.00 0.00
5:53 pm 17:53 Cloudy 58 14.4 40 4.4 51 51 S 12 19 30.03 1017 10 16 0.00 0.00
6:53 pm 18:53 Cloudy with Light Rain 55 12.8 44 6.7 67 67 SSW 13 20 30.01 1016 10 16 0.00 0.03
7:53 pm 19:53 Cloudy 54 12.2 45 7.2 72 72 SSE 8 13 30.01 1016 10 16 0.00 0.03
8:53 pm 20:53 Cloudy 53 11.7 47 8.3 80 80 W 5 7 30.04 1017 10 16 0.00 0.00
9:53 pm 21:53 Cloudy with Light Rain 51 10.6 47 8.3 86 86 SW 10 17 30.06 1018 10 16 0.01 0.25
10:53 pm 22:53 Cloudy with Rain 50 10 48 8.9 93 93 SW 13 20 30.08 1019 8 13 0.02 0.51
11:53 pm 23:53 Clear 49 9.4 47 8.3 93 93 SW 5 7 30.05 1018 10 16 0.03 0.76

Powered by AerisWeather